| time (UTC) | temp F | wind direction | speed knots | gust knots | rain 1hr in | rain 24hr in | rain mn in | humidity % | barometer mb |
| 20260506201009 | 59 | 307 | 1.7 | 6.1 | 0.00 | 0.00 | 0.00 | 34 | 1017.8 |
| 20260506200513 | 60 | 346 | 0.9 | 6.1 | 0.00 | 0.00 | 0.00 | 29 | 1017.7 |
| 20260506200017 | 61 | 306 | 2.6 | 9.6 | 0.00 | 0.00 | 0.00 | 35 | 1017.9 |
| 20260506195507 | 60 | 333 | 2.6 | 9.6 | 0.00 | 0.00 | 0.00 | 36 | 1017.9 |
| 20260506195006 | 60 | 355 | 4.3 | 9.6 | 0.00 | 0.00 | 0.00 | 33 | 1017.9 |
| 20260506194522 | 58 | 355 | 1.7 | 4.3 | 0.00 | 0.00 | 0.00 | 34 | 1018.0 |
| 20260506194009 | 58 | 338 | 1.7 | 7.8 | 0.00 | 0.00 | 0.00 | 35 | 1018.0 |
| 20260506193507 | 58 | 344 | 3.5 | 7.8 | 0.00 | 0.00 | 0.00 | 32 | 1018.0 |
| 20260506193021 | 58 | 331 | 3.5 | 8.7 | 0.00 | 0.00 | 0.00 | 34 | 1018.1 |
| 20260506192510 | 60 | 266 | 3.5 | 10.4 | 0.00 | 0.00 | 0.00 | 32 | 1018.0 |
| 20260506192008 | 61 | 335 | 5.2 | 10.4 | 0.00 | 0.00 | 0.00 | 34 | 1018.1 |
| 20260506191510 | 60 | 331 | 2.6 | 8.7 | 0.00 | 0.00 | 0.00 | 38 | 1018.1 |
| 20260506191004 | 59 | 310 | 2.6 | 9.6 | 0.00 | 0.00 | 0.00 | 42 | 1018.2 |
| 20260506190503 | 56 | 310 | 1.7 | 10.4 | 0.00 | 0.00 | 0.00 | 36 | 1018.2 |
| 20260506190016 | 58 | 315 | 6.1 | 10.4 | 0.00 | 0.00 | 0.00 | 35 | 1018.3 |
| 20260506185503 | 60 | 360 | 2.6 | 7.8 | 0.00 | 0.00 | 0.00 | 35 | 1018.3 |
| 20260506185003 | 60 | 309 | 2.6 | 7.8 | 0.00 | 0.00 | 0.00 | 36 | 1018.3 |
| 20260506184512 | 59 | 332 | 2.6 | 6.1 | 0.00 | 0.00 | 0.00 | 36 | 1018.4 |
| 20260506184005 | 59 | 238 | 2.6 | 9.6 | 0.00 | 0.00 | 0.00 | 35 | 1018.5 |
| 20260506183508 | 58 | 329 | 2.6 | 9.6 | 0.00 | 0.00 | 0.00 | 36 | 1018.5 |
| 20260506183005 | 59 | 315 | 2.6 | 8.7 | 0.00 | 0.00 | 0.00 | 36 | 1018.5 |
| 20260506182503 | 58 | 330 | 2.6 | 8.7 | 0.00 | 0.00 | 0.00 | 37 | 1018.6 |
| 20260506182005 | 59 | 323 | 3.5 | 9.6 | 0.00 | 0.00 | 0.00 | 40 | 1018.6 |
| 20260506181504 | 57 | 119 | 1.7 | 9.6 | 0.00 | 0.00 | 0.00 | 35 | 1018.5 |
| 20260506181004 | 59 | 321 | 4.3 | 9.6 | 0.00 | 0.00 | 0.00 | 38 | 1018.5 |
| 20260506180504 | 58 | 320 | 2.6 | 9.6 | 0.00 | 0.00 | 0.00 | 41 | 1018.9 |
| 20260506180005 | 57 | 306 | 3.5 | 7.8 | 0.00 | 0.00 | 0.00 | 38 | 1018.8 |
| 20260506175506 | 56 | 318 | 2.6 | 7.0 | 0.00 | 0.00 | 0.00 | 42 | 1018.9 |
| 20260506175005 | 55 | 5 | 2.6 | 8.7 | 0.00 | 0.00 | 0.00 | 37 | 1018.9 |
| 20260506174517 | 55 | 349 | 1.7 | 8.7 | 0.00 | 0.00 | 0.00 | 38 | 1018.9 |
| 20260506174002 | 56 | 332 | 3.5 | 7.8 | 0.00 | 0.00 | 0.00 | 39 | 1019.0 |
| 20260506173505 | 56 | 347 | 1.7 | 7.8 | 0.00 | 0.00 | 0.00 | 39 | 1019.1 |
| 20260506173015 | 56 | 323 | 3.5 | 9.6 | 0.00 | 0.00 | 0.00 | 43 | 1019.2 |
| 20260506172504 | 54 | 312 | 2.6 | 9.6 | 0.00 | 0.00 | 0.00 | 40 | 1019.3 |
| 20260506172003 | 57 | 330 | 2.6 | 9.6 | 0.00 | 0.00 | 0.00 | 42 | 1019.4 |
| 20260506171511 | 56 | 326 | 0.0 | 7.0 | 0.00 | 0.00 | 0.00 | 39 | 1019.4 |
| 20260506171003 | 54 | 238 | 1.7 | 6.1 | 0.00 | 0.00 | 0.00 | 37 | 1019.4 |
| 20260506170505 | 54 | 227 | 0.9 | 7.8 | 0.00 | 0.00 | 0.00 | 42 | 1019.6 |
| 20260506170007 | 53 | 140 | 2.6 | 7.8 | 0.00 | 0.00 | 0.00 | 37 | 1019.6 |
| 20260506165504 | 55 | 305 | 1.7 | 6.1 | 0.00 | 0.00 | 0.00 | 37 | 1019.5 |
| 20260506165005 | 56 | 309 | 0.9 | 7.0 | 0.00 | 0.00 | 0.00 | 38 | 1019.5 |
| 20260506164506 | 53 | 169 | 1.7 | 10.4 | 0.00 | 0.00 | 0.00 | 37 | 1019.6 |
| 20260506164009 | 55 | 317 | 4.3 | 10.4 | 0.00 | 0.00 | 0.00 | 37 | 1019.7 |
| 20260506163512 | 56 | 350 | 2.6 | 10.4 | 0.00 | 0.00 | 0.00 | 38 | 1019.7 |
| 20260506163008 | 55 | 330 | 1.7 | 11.3 | 0.00 | 0.00 | 0.00 | 42 | 1019.7 |
| 20260506162507 | 53 | 330 | 1.7 | 11.3 | 0.00 | 0.00 | 0.00 | 38 | 1019.7 |
| 20260506162013 | 54 | 261 | 0.9 | 6.1 | 0.00 | 0.00 | 0.00 | 37 | 1019.7 |
| 20260506161511 | 53 | 331 | 3.5 | 6.1 | 0.00 | 0.00 | 0.00 | 42 | 1019.7 |
| 20260506161003 | 53 | 311 | 2.6 | 6.1 | 0.00 | 0.00 | 0.00 | 39 | 1019.7 |
| 20260506160506 | 55 | 311 | 1.7 | 6.1 | 0.00 | 0.00 | 0.00 | 45 | 1019.6 |
| 20260506160006 | 54 | 5 | 1.7 | 7.0 | 0.00 | 0.00 | 0.00 | 43 | 1019.6 |
| 20260506155503 | 53 | 310 | 2.6 | 7.0 | 0.00 | 0.00 | 0.00 | 43 | 1019.5 |
| 20260506155004 | 54 | 344 | 2.6 | 9.6 | 0.00 | 0.00 | 0.00 | 41 | 1019.5 |
| 20260506154510 | 53 | 215 | 1.7 | 9.6 | 0.00 | 0.00 | 0.00 | 44 | 1019.5 |
| 20260506154004 | 53 | 351 | 2.6 | 9.6 | 0.00 | 0.00 | 0.00 | 43 | 1019.5 |
| 20260506153505 | 52 | 306 | 2.6 | 6.1 | 0.00 | 0.00 | 0.00 | 43 | 1019.5 |
| 20260506153013 | 52 | 311 | 2.6 | 5.2 | 0.00 | 0.00 | 0.00 | 43 | 1019.6 |
| 20260506152505 | 52 | 328 | 1.7 | 6.1 | 0.00 | 0.00 | 0.00 | 41 | 1019.5 |
| 20260506152005 | 52 | 303 | 2.6 | 6.1 | 0.00 | 0.00 | 0.00 | 45 | 1019.5 |
| 20260506151517 | 53 | 336 | 1.7 | 4.3 | 0.00 | 0.00 | 0.00 | 42 | 1019.6 |
| 20260506151009 | 53 | 334 | 0.9 | 3.5 | 0.00 | 0.00 | 0.00 | 46 | 1019.6 |
| 20260506150507 | 52 | 339 | 1.7 | 4.3 | 0.00 | 0.00 | 0.00 | 45 | 1019.6 |
| 20260506150007 | 52 | 355 | 0.9 | 7.0 | 0.00 | 0.00 | 0.00 | 44 | 1019.6 |
| 20260506145505 | 52 | 297 | 2.6 | 7.0 | 0.00 | 0.00 | 0.00 | 45 | 1019.6 |
| 20260506145010 | 52 | 321 | 1.7 | 6.1 | 0.00 | 0.00 | 0.00 | 47 | 1019.6 |
| 20260506144506 | 51 | 316 | 1.7 | 6.1 | 0.00 | 0.00 | 0.00 | 49 | 1019.6 |
| 20260506144006 | 51 | 348 | 0.9 | 4.3 | 0.00 | 0.00 | 0.00 | 46 | 1019.5 |
| 20260506143504 | 51 | 320 | 0.9 | 4.3 | 0.00 | 0.00 | 0.00 | 47 | 1019.6 |
| 20260506143012 | 51 | 303 | 0.9 | 2.6 | 0.00 | 0.00 | 0.00 | 51 | 1019.5 |
| 20260506142505 | 50 | 346 | 0.0 | 2.6 | 0.00 | 0.00 | 0.00 | 54 | 1019.5 |
| 20260506142005 | 49 | 346 | 0.0 | 2.6 | 0.00 | 0.00 | 0.00 | 51 | 1019.5 |
| 20260506141511 | 49 | 350 | 0.9 | 2.6 | 0.00 | 0.00 | 0.00 | 48 | 1019.5 |
| 20260506141006 | 49 | 347 | 0.9 | 3.5 | 0.00 | 0.00 | 0.00 | 51 | 1019.4 |
| 20260506140507 | 48 | 334 | 1.7 | 3.5 | 0.00 | 0.00 | 0.00 | 49 | 1019.4 |
| 20260506140022 | 47 | 242 | 0.0 | 2.6 | 0.00 | 0.00 | 0.00 | 52 | 1019.3 |
| 20260506135507 | 47 | 340 | 0.9 | 6.1 | 0.00 | 0.00 | 0.00 | 53 | 1019.3 |
| 20260506135006 | 47 | 331 | 1.7 | 6.1 | 0.00 | 0.00 | 0.00 | 52 | 1019.3 |
| 20260506134514 | 46 | 343 | 1.7 | 3.5 | 0.00 | 0.00 | 0.00 | 54 | 1019.2 |
| 20260506134010 | 46 | 309 | 0.9 | 4.3 | 0.00 | 0.00 | 0.00 | 56 | 1019.2 |
| 20260506133507 | 45 | 305 | 2.6 | 4.3 | 0.00 | 0.00 | 0.00 | 55 | 1019.1 |
| 20260506133018 | 45 | 309 | 1.7 | 4.3 | 0.00 | 0.00 | 0.00 | 54 | 1019.2 |
| 20260506132509 | 45 | 346 | 1.7 | 4.3 | 0.00 | 0.00 | 0.00 | 56 | 1019.1 |
| 20260506132007 | 45 | 348 | 0.9 | 4.3 | 0.00 | 0.00 | 0.00 | 56 | 1019.0 |
| 20260506131517 | 44 | 346 | 0.9 | 3.5 | 0.00 | 0.00 | 0.00 | 58 | 1018.9 |
| 20260506131006 | 43 | 322 | 1.7 | 3.5 | 0.00 | 0.00 | 0.00 | 59 | 1018.8 |
| 20260506130509 | 44 | 327 | 1.7 | 3.5 | 0.00 | 0.00 | 0.00 | 59 | 1018.8 |
| 20260506130020 | 44 | 298 | 1.7 | 2.6 | 0.00 | 0.00 | 0.00 | 60 | 1018.8 |
| 20260506125505 | 43 | 345 | 0.9 | 2.6 | 0.00 | 0.00 | 0.00 | 62 | 1018.8 |
| 20260506125007 | 43 | 344 | 0.9 | 2.6 | 0.00 | 0.00 | 0.00 | 64 | 1018.8 |
| 20260506124519 | 42 | 344 | 0.0 | 2.6 | 0.00 | 0.00 | 0.00 | 64 | 1018.8 |
| 20260506124010 | 42 | 344 | 0.0 | 3.5 | 0.00 | 0.00 | 0.00 | 63 | 1018.6 |
| 20260506123507 | 42 | 346 | 0.9 | 3.5 | 0.00 | 0.00 | 0.00 | 63 | 1018.5 |
| 20260506123015 | 41 | 341 | 0.9 | 2.6 | 0.00 | 0.00 | 0.00 | 65 | 1018.5 |
| 20260506122507 | 41 | 341 | 0.9 | 2.6 | 0.00 | 0.00 | 0.00 | 66 | 1018.4 |
| 20260506122006 | 40 | 341 | 0.0 | 1.7 | 0.00 | 0.00 | 0.00 | 68 | 1018.3 |
| 20260506121510 | 39 | 341 | 0.0 | 1.7 | 0.00 | 0.00 | 0.00 | 69 | 1018.3 |
| 20260506121004 | 38 | 341 | 0.0 | 1.7 | 0.00 | 0.00 | 0.00 | 71 | 1018.2 |
| 20260506120507 | 37 | 341 | 0.0 | 1.7 | 0.00 | 0.00 | 0.00 | 72 | 1018.1 |
| 20260506120028 | 37 | 341 | 0.0 | 0.9 | 0.00 | 0.00 | 0.00 | 72 | 1018.0 |
| 20260506115506 | 37 | 341 | 0.0 | 0.0 | 0.00 | 0.00 | 0.00 | 70 | 1017.9 |
| 20260506115006 | 37 | 341 | 0.0 | 0.0 | 0.00 | 0.00 | 0.00 | 70 | 1017.9 |
| 20260506114521 | 37 | 341 | 0.0 | 0.0 | 0.00 | 0.00 | 0.00 | 70 | 1017.8 |
| 20260506114007 | 37 | 341 | 0.0 | 0.0 | 0.00 | 0.00 | 0.00 | 70 | 1017.8 |
| 20260506113508 | 37 | 341 | 0.0 | 0.0 | 0.00 | 0.00 | 0.00 | 70 | 1017.7 |
| 20260506113024 | 37 | 341 | 0.0 | 0.0 | 0.00 | 0.00 | 0.00 | 70 | 1017.6 |
| 20260506112509 | 37 | 341 | 0.0 | 0.0 | 0.00 | 0.00 | 0.00 | 69 | 1017.6 |
| 20260506112007 | 37 | 341 | 0.0 | 0.0 | 0.00 | 0.00 | 0.00 | 70 | 1017.6 |
| 20260506111526 | 37 | 341 | 0.0 | 0.0 | 0.00 | 0.00 | 0.00 | 70 | 1017.6 |
| 20260506111007 | 37 | 341 | 0.0 | 0.0 | 0.00 | 0.00 | 0.00 | 69 | 1017.6 |
| 20260506110509 | 37 | 341 | 0.0 | 0.0 | 0.00 | 0.00 | 0.00 | 68 | 1017.5 |
| 20260506110022 | 38 | 341 | 0.0 | 0.0 | 0.00 | 0.00 | 0.00 | 66 | 1017.6 |
| 20260506105511 | 38 | 341 | 0.0 | 0.0 | 0.00 | 0.00 | 0.00 | 66 | 1017.7 |
| 20260506105007 | 38 | 341 | 0.0 | 0.0 | 0.00 | 0.00 | 0.00 | 66 | 1017.6 |
| 20260506104518 | 38 | 341 | 0.0 | 0.0 | 0.00 | 0.00 | 0.00 | 66 | 1017.6 |
| 20260506104007 | 38 | 341 | 0.0 | 0.0 | 0.00 | 0.00 | 0.00 | 67 | 1017.6 |
| 20260506103510 | 38 | 341 | 0.0 | 0.0 | 0.00 | 0.00 | 0.00 | 67 | 1017.5 |
| 20260506103018 | 38 | 341 | 0.0 | 0.0 | 0.00 | 0.00 | 0.00 | 66 | 1017.4 |
| 20260506102508 | 39 | 341 | 0.0 | 0.0 | 0.00 | 0.00 | 0.00 | 65 | 1017.4 |
| 20260506102011 | 39 | 341 | 0.0 | 0.0 | 0.00 | 0.00 | 0.00 | 65 | 1017.3 |
| 20260506101508 | 39 | 341 | 0.0 | 0.0 | 0.00 | 0.00 | 0.00 | 66 | 1017.3 |
| 20260506101005 | 39 | 341 | 0.0 | 0.0 | 0.00 | 0.00 | 0.00 | 65 | 1017.2 |
| 20260506100503 | 39 | 341 | 0.0 | 0.0 | 0.00 | 0.00 | 0.00 | 64 | 1017.2 |
| 20260506100023 | 40 | 341 | 0.0 | 0.0 | 0.00 | 0.00 | 0.00 | 63 | 1017.2 |
| 20260506095503 | 40 | 341 | 0.0 | 0.0 | 0.00 | 0.00 | 0.00 | 63 | 1017.2 |
| 20260506095004 | 40 | 341 | 0.0 | 0.9 | 0.00 | 0.00 | 0.00 | 64 | 1017.1 |
| 20260506094508 | 40 | 341 | 0.0 | 0.9 | 0.00 | 0.00 | 0.00 | 64 | 1017.1 |
| 20260506094006 | 40 | 341 | 0.0 | 0.9 | 0.00 | 0.00 | 0.00 | 62 | 1017.1 |
| 20260506093507 | 41 | 341 | 0.0 | 0.9 | 0.00 | 0.00 | 0.00 | 62 | 1017.1 |
| 20260506093005 | 41 | 341 | 0.0 | 0.9 | 0.00 | 0.00 | 0.00 | 61 | 1017.1 |
| 20260506092506 | 41 | 341 | 0.0 | 0.9 | 0.00 | 0.00 | 0.00 | 61 | 1017.0 |
| 20260506092006 | 42 | 341 | 0.0 | 0.9 | 0.00 | 0.00 | 0.00 | 61 | 1016.9 |
| 20260506091506 | 42 | 341 | 0.0 | 0.9 | 0.00 | 0.00 | 0.00 | 61 | 1016.9 |
| 20260506091004 | 42 | 341 | 0.0 | 0.0 | 0.00 | 0.00 | 0.00 | 60 | 1016.8 |
| 20260506090502 | 42 | 341 | 0.0 | 0.9 | 0.00 | 0.00 | 0.00 | 60 | 1016.8 |
| 20260506090007 | 42 | 341 | 0.0 | 0.9 | 0.00 | 0.00 | 0.00 | 59 | 1016.7 |
| 20260506085503 | 42 | 341 | 0.0 | 0.9 | 0.00 | 0.00 | 0.00 | 59 | 1016.7 |
| 20260506085004 | 43 | 341 | 0.0 | 0.9 | 0.00 | 0.00 | 0.00 | 58 | 1016.7 |
| 20260506084513 | 43 | 341 | 0.0 | 0.9 | 0.00 | 0.00 | 0.00 | 59 | 1016.6 |
| 20260506084003 | 43 | 341 | 0.0 | 0.9 | 0.00 | 0.00 | 0.00 | 58 | 1016.5 |
| 20260506083504 | 43 | 341 | 0.0 | 1.7 | 0.00 | 0.00 | 0.00 | 57 | 1016.5 |
| 20260506083018 | 43 | 341 | 0.0 | 1.7 | 0.00 | 0.00 | 0.00 | 56 | 1016.4 |
| 20260506082505 | 44 | 341 | 0.0 | 1.7 | 0.00 | 0.00 | 0.00 | 56 | 1016.4 |
| 20260506082003 | 44 | 341 | 0.0 | 1.7 | 0.00 | 0.00 | 0.00 | 56 | 1016.4 |
| 20260506081510 | 44 | 341 | 0.0 | 1.7 | 0.00 | 0.00 | 0.00 | 55 | 1016.3 |
| 20260506081006 | 44 | 341 | 0.0 | 1.7 | 0.00 | 0.00 | 0.00 | 55 | 1016.3 |
| 20260506080508 | 44 | 341 | 0.0 | 1.7 | 0.00 | 0.00 | 0.00 | 56 | 1016.4 |
| 20260506073509 | 44 | 341 | 0.0 | 1.7 | 0.00 | 0.00 | 0.00 | 55 | 1016.0 |
| 20260506073007 | 44 | 341 | 0.0 | 0.9 | 0.00 | 0.00 | 0.00 | 55 | 1016.1 |
| 20260506072509 | 45 | 341 | 0.0 | 1.7 | 0.00 | 0.00 | 0.00 | 54 | 1016.1 |
| 20260506072008 | 45 | 341 | 0.0 | 1.7 | 0.00 | 0.00 | 0.00 | 52 | 1016.0 |
| 20260506071522 | 45 | 341 | 0.0 | 1.7 | 0.00 | 0.00 | 0.00 | 51 | 1016.0 |
| 20260506071003 | 45 | 341 | 0.0 | 2.6 | 0.00 | 0.00 | 0.00 | 52 | 1016.0 |
| 20260506070504 | 45 | 340 | 0.0 | 2.6 | 0.00 | 0.00 | 0.00 | 49 | 1016.1 |
| 20260506062505 | 46 | 341 | 0.0 | 1.7 | 0.00 | 0.01 | 0.00 | 47 | 1016.0 |
| 20260506062011 | 46 | 341 | 0.0 | 2.6 | 0.00 | 0.01 | 0.00 | 49 | 1016.0 |
| 20260506061508 | 46 | 341 | 0.0 | 3.5 | 0.00 | 0.01 | 0.00 | 46 | 1016.0 |
| 20260506061003 | 46 | 340 | 0.9 | 3.5 | 0.00 | 0.02 | 0.00 | 46 | 1016.0 |
| 20260506060506 | 46 | 344 | 0.0 | 2.6 | 0.00 | 0.02 | 0.00 | 48 | 1016.0 |
| 20260506051006 | 47 | 344 | 0.9 | 2.6 | 0.00 | 0.02 | 0.00 | 46 | 1015.6 |
| 20260506050502 | 47 | 340 | 0.0 | 1.7 | 0.00 | 0.02 | 0.00 | 47 | 1015.5 |
| 20260506045005 | 48 | 340 | 0.0 | 1.7 | 0.00 | 0.02 | 0.02 | 48 | 1015.2 |
| 20260506044510 | 48 | 340 | 0.0 | 1.7 | 0.00 | 0.02 | 0.02 | 48 | 1015.1 |
| 20260506044007 | 48 | 340 | 0.0 | 2.6 | 0.00 | 0.02 | 0.02 | 45 | 1015.1 |
| 20260506043509 | 48 | 340 | 0.0 | 2.6 | 0.00 | 0.02 | 0.02 | 45 | 1015.2 |
| 20260506043024 | 48 | 339 | 0.9 | 1.7 | 0.00 | 0.02 | 0.02 | 44 | 1015.2 |
| 20260506042503 | 48 | 339 | 0.0 | 1.7 | 0.00 | 0.02 | 0.02 | 46 | 1015.2 |
| 20260506042010 | 48 | 339 | 0.0 | 1.7 | 0.00 | 0.02 | 0.02 | 47 | 1015.1 |
| 20260506041518 | 48 | 339 | 0.0 | 2.6 | 0.00 | 0.02 | 0.02 | 47 | 1015.0 |
| 20260506041002 | 49 | 339 | 0.9 | 2.6 | 0.00 | 0.02 | 0.02 | 46 | 1015.0 |
| 20260506040505 | 49 | 350 | 0.0 | 2.6 | 0.00 | 0.02 | 0.02 | 45 | 1015.0 |
| 20260506040032 | 49 | 350 | 0.0 | 2.6 | 0.00 | 0.02 | 0.02 | 45 | 1015.0 |
| 20260506035506 | 49 | 350 | 0.0 | 2.6 | 0.00 | 0.02 | 0.02 | 43 | 1015.0 |
| 20260506035007 | 49 | 350 | 0.0 | 2.6 | 0.00 | 0.02 | 0.02 | 42 | 1015.1 |
| 20260506034515 | 49 | 350 | 0.9 | 3.5 | 0.00 | 0.02 | 0.02 | 42 | 1014.9 |
| 20260506034011 | 49 | 355 | 0.9 | 3.5 | 0.00 | 0.02 | 0.02 | 41 | 1014.9 |
| 20260506033506 | 50 | 342 | 0.9 | 3.5 | 0.00 | 0.02 | 0.02 | 42 | 1014.8 |
| 20260506033020 | 50 | 345 | 0.9 | 3.5 | 0.00 | 0.02 | 0.02 | 41 | 1014.7 |
| 20260506032508 | 50 | 346 | 0.9 | 3.5 | 0.00 | 0.02 | 0.02 | 41 | 1014.6 |
| 20260506032007 | 50 | 346 | 0.9 | 3.5 | 0.00 | 0.02 | 0.02 | 42 | 1014.5 |
| 20260506031516 | 50 | 338 | 0.9 | 2.6 | 0.00 | 0.02 | 0.02 | 42 | 1014.5 |
| 20260506031008 | 50 | 345 | 0.0 | 3.5 | 0.00 | 0.02 | 0.02 | 41 | 1014.4 |
| 20260506030510 | 50 | 349 | 0.9 | 3.5 | 0.00 | 0.02 | 0.02 | 40 | 1014.3 |
| 20260506030026 | 50 | 5 | 0.9 | 4.3 | 0.00 | 0.02 | 0.02 | 40 | 1014.3 |
| 20260506025506 | 50 | 333 | 0.9 | 4.3 | 0.00 | 0.02 | 0.02 | 40 | 1014.2 |
| 20260506025007 | 50 | 347 | 0.0 | 3.5 | 0.00 | 0.02 | 0.02 | 41 | 1014.2 |
| 20260506024517 | 50 | 350 | 0.0 | 7.0 | 0.00 | 0.02 | 0.02 | 40 | 1014.1 |
| 20260506024009 | 51 | 336 | 2.6 | 7.0 | 0.00 | 0.02 | 0.02 | 39 | 1014.1 |
| 20260506023508 | 51 | 342 | 1.7 | 6.1 | 0.00 | 0.02 | 0.02 | 39 | 1014.0 |
| 20260506023028 | 51 | 360 | 0.9 | 5.2 | 0.00 | 0.02 | 0.02 | 40 | 1014.0 |
| 20260506022505 | 51 | 301 | 1.7 | 5.2 | 0.00 | 0.02 | 0.02 | 40 | 1014.0 |
| 20260506022008 | 51 | 330 | 1.7 | 7.0 | 0.00 | 0.02 | 0.02 | 39 | 1014.0 |
| 20260506021531 | 51 | 311 | 1.7 | 7.0 | 0.00 | 0.02 | 0.02 | 39 | 1013.8 |
| 20260506021008 | 51 | 343 | 0.9 | 7.0 | 0.00 | 0.02 | 0.02 | 38 | 1013.7 |
| 20260506020507 | 51 | 318 | 1.7 | 7.8 | 0.00 | 0.02 | 0.02 | 38 | 1013.7 |
| 20260506020016 | 51 | 332 | 3.5 | 7.8 | 0.00 | 0.02 | 0.02 | 37 | 1013.7 |
| 20260506015510 | 51 | 326 | 3.5 | 7.8 | 0.00 | 0.02 | 0.02 | 38 | 1013.6 |
| 20260506015010 | 52 | 333 | 3.5 | 7.8 | 0.00 | 0.02 | 0.02 | 38 | 1013.6 |
| 20260506014519 | 52 | 338 | 2.6 | 5.2 | 0.00 | 0.02 | 0.02 | 38 | 1013.4 |
| 20260506014009 | 52 | 335 | 1.7 | 4.3 | 0.00 | 0.02 | 0.02 | 38 | 1013.3 |
| 20260506013508 | 52 | 355 | 1.7 | 7.0 | 0.00 | 0.02 | 0.02 | 38 | 1013.3 |
| 20260506013013 | 52 | 344 | 2.6 | 7.8 | 0.00 | 0.02 | 0.02 | 39 | 1013.2 |
| 20260506012507 | 52 | 326 | 2.6 | 7.8 | 0.00 | 0.02 | 0.02 | 38 | 1013.2 |
| 20260506012004 | 52 | 347 | 2.6 | 7.8 | 0.00 | 0.02 | 0.02 | 39 | 1013.2 |
| 20260506011521 | 52 | 302 | 1.7 | 7.8 | 0.00 | 0.02 | 0.02 | 38 | 1013.2 |
| 20260506011010 | 52 | 5 | 3.5 | 7.8 | 0.00 | 0.02 | 0.02 | 37 | 1013.1 |
| 20260506010511 | 52 | 322 | 3.5 | 11.3 | 0.00 | 0.02 | 0.02 | 38 | 1013.1 |
| 20260506010042 | 53 | 9 | 1.7 | 11.3 | 0.00 | 0.02 | 0.02 | 38 | 1013.1 |
| 20260506005506 | 53 | 349 | 5.2 | 11.3 | 0.00 | 0.02 | 0.02 | 37 | 1013.1 |
| 20260506005008 | 53 | 319 | 4.3 | 11.3 | 0.00 | 0.02 | 0.02 | 36 | 1013.1 |
| 20260506004526 | 53 | 360 | 3.5 | 10.4 | 0.00 | 0.02 | 0.02 | 37 | 1013.0 |
| 20260506004007 | 53 | 5 | 4.3 | 10.4 | 0.00 | 0.02 | 0.02 | 37 | 1013.0 |
| 20260506003506 | 53 | 5 | 3.5 | 9.6 | 0.00 | 0.02 | 0.02 | 37 | 1012.9 |
| 20260506003026 | 53 | 5 | 2.6 | 7.8 | 0.00 | 0.02 | 0.02 | 39 | 1012.9 |
| 20260506002510 | 53 | 315 | 1.7 | 7.8 | 0.00 | 0.02 | 0.02 | 39 | 1012.9 |
| 20260506002008 | 53 | 299 | 3.5 | 7.8 | 0.00 | 0.02 | 0.02 | 38 | 1012.9 |
| 20260506001520 | 53 | 337 | 1.7 | 8.7 | 0.00 | 0.02 | 0.02 | 38 | 1012.8 |
| 20260506001009 | 53 | 5 | 3.5 | 9.6 | 0.00 | 0.02 | 0.02 | 39 | 1012.8 |
| 20260506000510 | 54 | 340 | 1.7 | 9.6 | 0.00 | 0.02 | 0.02 | 38 | 1012.8 |
| 20260506000020 | 54 | 330 | 1.7 | 9.6 | 0.00 | 0.02 | 0.02 | 39 | 1012.7 |
| 20260505235510 | 54 | 337 | 2.6 | 9.6 | 0.00 | 0.02 | 0.02 | 37 | 1012.7 |
| 20260505235008 | 54 | 338 | 2.6 | 9.6 | 0.00 | 0.02 | 0.02 | 37 | 1012.7 |
| 20260505234539 | 54 | 315 | 3.5 | 9.6 | 0.00 | 0.02 | 0.02 | 38 | 1012.7 |
| 20260505234012 | 54 | 341 | 2.6 | 13.9 | 0.00 | 0.02 | 0.02 | 37 | 1012.7 |
| 20260505233505 | 54 | 313 | 6.1 | 13.9 | 0.00 | 0.02 | 0.02 | 37 | 1012.6 |
| 20260505233035 | 54 | 321 | 4.3 | 12.2 | 0.00 | 0.02 | 0.02 | 38 | 1012.6 |
| 20260505232511 | 55 | 355 | 3.5 | 9.6 | 0.00 | 0.02 | 0.02 | 38 | 1012.4 |
| 20260505232009 | 55 | 333 | 2.6 | 7.8 | 0.00 | 0.02 | 0.02 | 38 | 1012.5 |
| 20260505231531 | 55 | 346 | 2.6 | 7.8 | 0.00 | 0.02 | 0.02 | 37 | 1012.4 |
| 20260505231009 | 55 | 341 | 3.5 | 8.7 | 0.00 | 0.02 | 0.02 | 36 | 1012.3 |
| 20260505230505 | 56 | 320 | 3.5 | 8.7 | 0.00 | 0.02 | 0.02 | 38 | 1012.3 |
| 20260505230022 | 56 | 315 | 2.6 | 10.4 | 0.00 | 0.02 | 0.02 | 39 | 1012.3 |
| 20260505225510 | 56 | 313 | 3.5 | 10.4 | 0.00 | 0.02 | 0.02 | 39 | 1012.3 |
| 20260505225011 | 56 | 335 | 2.6 | 8.7 | 0.00 | 0.02 | 0.02 | 38 | 1012.2 |
| 20260505224523 | 56 | 329 | 2.6 | 7.8 | 0.00 | 0.02 | 0.02 | 37 | 1012.2 |
| 20260505224010 | 56 | 341 | 2.6 | 7.8 | 0.00 | 0.02 | 0.02 | 37 | 1012.2 |
| 20260505223519 | 57 | 16 | 3.5 | 7.8 | 0.00 | 0.02 | 0.02 | 36 | 1012.2 |
| 20260505223023 | 57 | 338 | 3.5 | 15.6 | 0.00 | 0.02 | 0.02 | 37 | 1012.2 |
| 20260505222513 | 56 | 336 | 4.3 | 15.6 | 0.00 | 0.02 | 0.02 | 36 | 1012.1 |
| 20260505222009 | 56 | 5 | 4.3 | 10.4 | 0.00 | 0.02 | 0.02 | 37 | 1012.1 |
| 20260505221523 | 56 | 307 | 4.3 | 10.4 | 0.00 | 0.02 | 0.02 | 37 | 1012.1 |
| 20260505221013 | 56 | 327 | 4.3 | 8.7 | 0.00 | 0.02 | 0.02 | 37 | 1012.1 |
| 20260505220508 | 57 | 318 | 5.2 | 8.7 | 0.00 | 0.02 | 0.02 | 38 | 1012.1 |
| 20260505220028 | 57 | 326 | 3.5 | 7.8 | 0.00 | 0.02 | 0.02 | 38 | 1012.0 |
| 20260505215509 | 57 | 306 | 3.5 | 7.0 | 0.00 | 0.02 | 0.02 | 39 | 1012.0 |
| 20260505215008 | 57 | 345 | 2.6 | 9.6 | 0.00 | 0.02 | 0.02 | 39 | 1012.1 |
| 20260505214544 | 57 | 319 | 4.3 | 9.6 | 0.00 | 0.02 | 0.02 | 39 | 1012.1 |
| 20260505214012 | 57 | 341 | 3.5 | 9.6 | 0.00 | 0.02 | 0.02 | 38 | 1012.1 |
| 20260505213509 | 57 | 276 | 3.5 | 9.6 | 0.00 | 0.02 | 0.02 | 37 | 1012.1 |
| 20260505213025 | 57 | 334 | 2.6 | 9.6 | 0.00 | 0.02 | 0.02 | 41 | 1012.2 |
| 20260505212515 | 57 | 311 | 2.6 | 9.6 | 0.00 | 0.02 | 0.02 | 40 | 1012.2 |
| 20260505212012 | 56 | 303 | 1.7 | 9.6 | 0.00 | 0.02 | 0.02 | 39 | 1012.3 |
| 20260505211526 | 56 | 315 | 4.3 | 12.2 | 0.00 | 0.02 | 0.02 | 38 | 1012.5 |
| 20260505211006 | 56 | 311 | 5.2 | 12.2 | 0.00 | 0.02 | 0.02 | 39 | 1012.5 |
| 20260505210507 | 57 | 277 | 4.3 | 10.4 | 0.00 | 0.02 | 0.02 | 39 | 1012.5 |
| 20260505210011 | 57 | 314 | 3.5 | 10.4 | 0.00 | 0.02 | 0.02 | 40 | 1012.5 |
| 20260505205506 | 57 | 300 | 2.6 | 8.7 | 0.00 | 0.02 | 0.02 | 41 | 1012.6 |
| 20260505205009 | 57 | 329 | 3.5 | 13.0 | 0.00 | 0.02 | 0.02 | 40 | 1012.6 |
| 20260505204509 | 57 | 332 | 3.5 | 13.0 | 0.00 | 0.02 | 0.02 | 40 | 1012.6 |
| 20260505204007 | 58 | 292 | 2.6 | 11.3 | 0.00 | 0.02 | 0.02 | 40 | 1012.7 |
| 20260505203508 | 58 | 338 | 6.1 | 11.3 | 0.00 | 0.02 | 0.02 | 37 | 1012.7 |
| 20260505203032 | 59 | 340 | 4.3 | 11.3 | 0.00 | 0.02 | 0.02 | 38 | 1012.6 |
| 20260505202506 | 59 | 301 | 2.6 | 8.7 | 0.00 | 0.02 | 0.02 | 37 | 1012.7 |
| 20260505202003 | 60 | 350 | 3.5 | 8.7 | 0.00 | 0.02 | 0.02 | 38 | 1012.7 |
| 20260505201515 | 59 | 355 | 1.7 | 8.7 | 0.00 | 0.02 | 0.02 | 38 | 1012.8 |